Regional Weather Roundup
Issued by NWS

Home | Current Version | Previous Version | Text Only | Print | Product List | Glossary Off
Versions: 1 2 3 4 5 6 7 8 9 10 11 12 13 14 15 16 17 18 19 20 21 22 23 24 25 26 27 28 29 30 31 32 33 34 35 36 37 38 39 40 41 42 43 44 45 46 47 48 49 50

476
ASUS43 KMPX 300401
RWRMN
WEATHER ROUNDUP FOR MINNESOTA
NATIONAL WEATHER SERVICE TWIN CITIES/CHANHASSEN MN
1100 PM CDT FRI JUL 29 2016


NOTE: "FAIR" INDICATES FEW OR NO CLOUDS BELOW 12,000 FEET WITH NO
SIGNIFICANT WEATHER AND/OR OBSTRUCTIONS TO VISIBILITY. N/A MEANS
CURRENT SKY AND/OR WEATHER CONDITIONS ARE NOT AVAILABLE.

MNZ060>063-068>070-300500-
   Twin Cities Metro

CITY           SKY/WX    TMP DP  RH WIND       PRES   REMARKS
TWIN CITIES    MOCLDY    69  56  62 N5        30.03S
ST PAUL        CLEAR     68  57  68 CALM      30.03S
CRYSTAL        CLOUDY    65  54  67 CALM      30.03S
BLAINE         CLOUDY    64  57  77 CALM      30.04S
LAKEVILLE      PTCLDY    59  59 100 CALM      30.04R
EDEN PRAIRIE   CLOUDY    68  55  63 N5        30.03R
LAKEVILLE      PTCLDY    59  59 100 CALM      30.04R
SOUTH ST PAUL  CLEAR     68  57  69 CALM      30.03S
LAKE ELMO      MOCLDY    63  61  94 CALM      30.04F
$$
MNZ001>005-007-008-013>017-022>024-027-028-300500-
   Northwest Minnesota

CITY           SKY/WX    TMP DP  RH WIND       PRES   REMARKS
BEMIDJI        MOCLDY    67  59  77 S5        30.04R
HALLOCK        CLEAR     63  57  82 SE3       29.99S
ROSEAU         CLOUDY    63  57  82 S3        30.01S
WARROAD        CLOUDY    64  61  88 S1        30.01S
THIEF RVR FALL CLOUDY    62  57  83 CALM      30.02S
CROOKSTON      CLEAR     63  57  82 SE5       30.01S
FOSSTON        CLOUDY    55  46  71 CALM      30.04R
DETROIT LAKES  PTCLDY    68  63  83 SW3       30.05S
MOORHEAD       MOCLDY    70  63  78 S5        30.03R
PARK RAPIDS    PTCLDY    66  60  81 CALM      30.05R
MAHNOMEN       FAIR      65  59  81 S5        30.03R
$$
MNZ006-009>011-018-025>026-300500-
   North Central Minnesota

CITY           SKY/WX    TMP DP  RH WIND       PRES   REMARKS
BAUDETTE       CLEAR     61  56  83 CALM      30.02R
FLAG ISLAND    PTCLDY    73  59  60 CALM      29.99S
INTL FALLS     CLOUDY    63  58  83 CALM      30.03R
WASKISH        PTCLDY    61  59  94 CALM      30.03S
BIG FORK       CLOUDY    57  55  94 SE5       30.06R FOG
LONGVILLE      MOCLDY    64  57  77 SE6       30.06R
GRAND RAPIDS   CLEAR     62  54  74 SE5       30.09R
CRANE LAKE     CLEAR     54  54 100 S3        30.06S
ORR            CLEAR     59  54  82 CALM      30.04R
COOK           CLEAR     61  54  77 CALM      30.07S
WALKER         MOCLDY    65  58  79 CALM      30.04S
$$
MNZ012-019>021-037-300500-
   Northeast Minnesota

CITY           SKY/WX    TMP DP  RH WIND       PRES   REMARKS
DULUTH         CLEAR     57  51  80 CALM      30.08R
ELY            CLEAR     61  48  63 CALM      30.08R
HIBBING        CLEAR     52  51  97 CALM      30.08R
EVELETH        CLEAR     54  52  94 CALM      30.10R
DULUTH HARBOR  CLEAR     64  61  88 NE8       30.07S
TWO HARBORS    CLEAR     57  52  82 N3        30.07R
SILVER BAY     CLEAR     54  52  94 CALM      30.07S
GRAND MARAIS     N/A     56  51  84 N6        30.07S
G MARAIS ARPRT CLEAR     52  46  82 CALM      30.12S
$$
MNZ029>031-032-039>041-046>048-054>057-064-300500-
   West Central Minnesota

CITY           SKY/WX    TMP DP  RH WIND       PRES   REMARKS
FERGUS FALLS   CLEAR     66  63  88 SE5       30.05R
WHEATON        CLEAR     64  63  94 SE5       30.05S
MORRIS         CLOUDY    64  63  94 S5        30.04S
ALEXANDRIA     MOCLDY    69  59  70 S5        30.07R
ELBOW LAKE     FAIR      66  62  87 E6        30.04S
WADENA         PTCLDY    63  61  94 SE1       30.05R
GLENWOOD       PTCLDY    66  61  82 CALM      30.07S
APPLETON       PTCLDY    68  57  68 SE5       30.04S
BENSON         PTCLDY    63  55  77 CALM      30.05S
ORTONVILLE     CLOUDY    68  59  73 S3        30.04S
MADISON        CLEAR     64  59  82 SE3       30.05S
WILLMAR        CLOUDY    66  61  82 SE5       30.07S
$$
MNZ033>034-036-042>043-049>051-058-059-300500-
   Central Minnesota

CITY           SKY/WX    TMP DP  RH WIND       PRES   REMARKS
ST CLOUD       CLOUDY    61  59  93 N3        30.05S
SAUK CENTRE    CLOUDY    67  59  73 SE5       30.06S
PAYNESVILLE    CLOUDY    69  58  67 SE5       30.07S
AITKIN         CLOUDY    63  52  67 E3        30.06S
PINE RIVER     CLOUDY    66  61  82 SE5       30.09R
BRAINERD       MOCLDY    64  57  78 SE3       30.06S
STAPLES        CLOUDY    64  57  77 S3        30.05F
LONG PRAIRIE   CLOUDY    64  59  82 CALM      30.07S
LITTLE FALLS   CLOUDY    63  54  72 CALM      30.06S
LITCHFIELD     PTCLDY    64  61  88 CALM      30.07R
BUFFALO        CLOUDY    63  56  77 CALM      30.06S
MAPLE LAKE     PTCLDY    61  58  90 CALM      30.06S
HUTCHINSON     CLEAR     60  58  95 CALM      30.07R
$$
MNZ037-044-045-052-053-300500-
   East Central Minnesota

CITY           SKY/WX    TMP DP  RH WIND       PRES   REMARKS
PRINCETON      CLOUDY    59  55  88 CALM      30.05F
MORA           CLOUDY    55  54  94 CALM      30.07F
CAMBRIDGE      CLOUDY    63  54  72 CALM      30.04S
RUSH CITY      PTCLDY    63  57  80 CALM      30.05F
MOOSE LAKE     CLEAR     55  54  94 CALM      30.06R
HINCKLEY       FAIR      59  57  94 N3        30.06S
CLOQUET        CLEAR     55  50  82 CALM      30.08S
MCGREGOR       CLOUDY    59  54  82 CALM      30.08S
$$
MNZ071>073-080-081-089-090-097-098-300500-
   Southwest Minnesota

CITY           SKY/WX    TMP DP  RH WIND       PRES   REMARKS
MONTEVIDEO     CLEAR     66  57  72 S5        30.07S
GRANITE FALLS  CLEAR     63  60  89 CALM      30.07R
CANBY          CLEAR     64  58  81 CALM      30.07R
MARSHALL       CLEAR     63  59  87 CALM      30.06S
REDWOOD FALLS  CLEAR     66  56  70 CALM      30.05R
OLIVIA         CLEAR     64  55  72 CALM      30.05S
PIPESTONE      CLEAR     64  55  72 E1        30.08R
WINDOM         CLEAR     59  55  88 CALM      30.07S
WORTHINGTON    CLEAR     61  57  87 CALM      30.08S
JACKSON        CLEAR     59  55  88 CALM      30.07S
TRACY          CLEAR     64  58  83 CALM      30.07S
SLAYTON        CLEAR     60  56  88 CALM      30.08S
$$
MNZ065>067-074>077-082>085-091>093-300500-
   South Central Minnesota

CITY           SKY/WX    TMP DP  RH WIND       PRES   REMARKS
MANKATO        PTCLDY    64  52  63 CALM      30.05S
NEW ULM        CLEAR     61  55  82 CALM      30.05S
ST JAMES       CLEAR     55  54  94 CALM      30.06S
FAIRMONT       MOCLDY    61  55  82 CALM      30.04S
GLENCOE        CLEAR     63  59  86 N3        30.05R
FARIBAULT      CLEAR     61  57  88 CALM      30.05R
OWATONNA       PTCLDY    61  57  88 CALM      30.05R
WASECA         PTCLDY    59  54  82 CALM      30.06R
ALBERT LEA     MOCLDY    63  63 100 CALM      30.04S
$$
MNZ078>079-086>088-094>096-300500-
   Southeast Minnesota

CITY           SKY/WX    TMP DP  RH WIND       PRES   REMARKS
ROCHESTER      CLOUDY    67  61  81 N3        30.04S
RED WING       CLEAR     63  61  94 CALM      30.01F
STANTON        CLEAR     61  57  88 CALM      30.02S
DODGE CENTER   MOCLDY    64  57  77 N3        30.04S
WINONA         CLEAR     70  64  83 CALM      30.02S
AUSTIN         CLOUDY    64  61  88 CALM      30.03S
PRESTON        CLOUDY    65  62  90 NE5       30.03F
$$
ABBREVIATIONS USED IN REMARKS
   TC - TEMPERATURES IN CELSIUS
  WCI - WIND CHILL INDEX
   HX - HEAT INDEX
  VSB - VISIBILITY
$$




USA.gov is the U.S. government's official web portal to all federal, state and local government web resources and services.